Date,TemperatureHighF,TemperatureAvgF,TemperatureLowF,DewpointHighF,DewpointAvgF,DewpointLowF,HumidityHigh,HumidityAvg,HumidityLow,PressureMaxIn,PressureMinIn,WindSpeedMaxMPH,WindSpeedAvgMPH,GustSpeedMaxMPH,PrecipitationSumIn
2013-6-1,82.6,75.9,66.5,74.0,66.2,57.0,94,73,43,29.94,29.57,17,6,26,0.74
2013-6-2,77.4,69.2,59.8,59.0,56.2,50.0,91,66,46,30.07,29.91,16,4,22,0.00
2013-6-3,82.6,71.8,59.3,66.0,61.5,56.0,90,71,51,29.97,29.78,14,4,16,0.00
2013-6-4,86.3,76.2,66.8,73.0,67.9,62.0,94,76,62,29.98,29.74,21,9,36,0.74
2013-6-5,84.2,76.6,69.0,74.0,70.3,67.0,94,81,67,29.92,29.75,13,6,29,0.33
2013-6-6,75.9,70.6,64.4,70.0,65.6,62.0,96,84,67,29.92,29.80,17,3,32,1.62
2013-6-7,81.2,69.6,59.4,63.0,59.0,53.0,94,72,44,29.98,29.86,10,2,12,0.00
2013-6-8,82.7,73.8,62.8,66.0,61.3,58.0,83,66,50,29.90,29.73,16,5,21,0.00
2013-6-9,87.5,76.1,65.6,69.0,66.1,63.0,94,73,48,29.89,29.76,20,3,27,0.22
2013-6-10,93.5,80.9,69.6,73.0,69.4,66.0,90,70,48,29.90,29.81,16,5,20,0.00
2013-6-11,91.2,82.2,71.0,75.0,70.4,65.0,86,68,55,29.93,29.83,13,5,22,0.00
2013-6-12,91.4,82.7,73.7,74.0,71.6,69.0,85,70,54,29.96,29.85,16,5,23,0.00
2013-6-13,93.4,83.8,74.0,77.0,72.8,69.0,85,70,50,29.97,29.82,12,2,14,0.00
2013-6-14,92.4,83.7,75.0,76.0,72.9,70.0,87,71,52,29.92,29.83,9,1,12,0.00
2013-6-15,86.1,80.9,74.3,77.0,74.0,70.0,92,80,65,29.93,29.82,17,3,20,0.00
2013-6-16,93.0,82.3,70.2,76.0,71.9,67.0,93,73,51,29.94,29.79,11,3,17,0.00
2013-6-17,86.2,76.3,66.9,73.0,69.3,65.0,95,80,62,29.95,29.79,21,5,36,1.19
2013-6-18,84.9,76.0,69.2,71.0,68.7,66.0,94,79,53,29.97,29.86,13,4,17,0.00
2013-6-19,84.3,77.0,69.4,75.0,72.1,68.0,97,85,70,29.96,29.82,13,4,17,0.00
2013-6-20,90.0,82.2,73.9,77.0,72.5,69.0,93,74,55,29.95,29.85,15,6,20,0.00
2013-6-21,90.3,82.6,75.5,76.0,71.4,69.0,82,70,54,29.96,29.86,14,6,22,0.00
2013-6-22,89.9,82.5,74.0,72.0,70.0,68.0,85,67,51,29.94,29.79,18,7,26,0.00
2013-6-23,90.3,82.8,74.8,72.0,70.3,68.0,85,67,51,29.89,29.79,18,7,28,0.00
2013-6-24,89.7,82.1,75.6,73.0,70.4,68.0,80,68,55,29.94,29.80,21,6,23,0.00
2013-6-25,91.8,84.1,77.1,75.0,71.1,67.0,80,65,54,29.87,29.72,25,7,29,0.00
2013-6-26,92.8,84.8,77.1,76.0,71.8,66.0,78,65,57,29.85,29.73,14,5,19,0.00
2013-6-27,98.0,86.3,75.8,77.0,73.1,68.0,82,66,43,29.93,29.77,17,3,25,0.00
2013-6-28,95.2,86.6,78.2,74.0,68.4,65.0,72,56,38,29.92,29.79,14,4,19,0.00
2013-6-29,91.8,83.0,74.5,69.0,64.8,60.0,80,56,36,29.88,29.77,14,4,23,0.00
2013-6-30,85.5,78.2,69.7,68.0,59.6,56.0,79,54,37,29.93,29.79,15,5,23,0.00